Tracking 19219 objects as of 19-Jul-2018
HD Live streaming from Space Station
objects crossing your sky now

WESTFORD NEEDLES

Track WESTFORD NEEDLES now!
10-day predictions
WESTFORD NEEDLES is classified as:


NORAD ID: 3257
Int'l Code: 1963-014BX
Perigee: 3,193.7 km
Apogee: 4,106.8 km
Inclination: 87.3 °
Period: 166.4 minutes
Semi major axis: 10021 km
RCS: 0.1816 m2 (medium)
Launch date: May 9, 1963
Source: United States (US)
Launch site: AIR FORCE WESTERN TEST RANGE (AFWTR)
aabbcc
Your satellite tracking list
Your tracking list is empty




NASA's NSSDC Master Catalog

Two Line Element Set (TLE):
1 03257U 63014BX  18199.06660998 -.00000094  00000-0 -41219-1 0  9996
2 03257  87.2557  67.1283 0455601 126.1711 238.2181  8.65409140148926
Source of the keplerian elements: AFSPC